"Pseudo-MPEC" for P22papF

Created 2026 Aug 12 5:35:28 UT using Find_Orb

Click here for an explanation of pseudo-MPECs

 
 Astrometry: 
     P22papF*0C2026 08 11.36345421 03 42.627+14 37 09.69   ~8BB5 21.59wXNEOCPF52
     P22papF 0C2026 08 11.37435221 03 43.543+14 38 17.40   ~8BB5 21.58wXNEOCPF52
     P22papF 0C2026 08 11.38529321 03 44.392+14 39 24.69   ~8BB5 21.73wXNEOCPF52
     P22papF 0C2026 08 11.39629621 03 45.281+14 40 33.05   ~8BB5 21.85wXNEOCPF52
     P22papF 0C2026 08 11.45931721 03 50.308+14 47 02.18   ~8BKZ 21.63GVNEOCPF52
     P22papF 0C2026 08 11.45995021 03 50.340+14 47 05.89   ~8BKZ 22.11GVNEOCPF52
     P22papF 1C2026 08 11.87267021 04 43.277+15 28 59.80   ~8BLK 21.2 GXNEOCP033
     P22papF 1C2026 08 11.87435021 04 43.468+15 29 10.20   ~8BLK 20.9 GXNEOCP033
     P22papF 1C2026 08 11.87602021 04 43.626+15 29 20.80   ~8BLK 21.0 GXNEOCP033
     P22papF KB2026 08 11.96306321 04 52.95 +15 38 35.3    ~8BNo 21.3 GXNEOCPI93
     P22papF KB2026 08 11.97151821 04 53.67 +15 39 29.2    ~8BNo 21.3 GXNEOCPI93
     P22papF KC2026 08 12.19283921 05 21.73 +16 02 47.2    ~8C5Z 21.5 GVNEOCPH21
     P22papF KC2026 08 12.19563821 05 21.97 +16 03 04.9    ~8C5Z 22.2 GVNEOCPH21
     P22papF KC2026 08 12.20123421 05 22.51 +16 03 40.4    ~8C5Z 21.7 GVNEOCPH21

Station data:
(033) Karl Schwarzschild Observatory, Tautenburg  (N50.980139 E11.711240)
   Germany.  Observer B. Stecklum. 1.34-m f/3 Schmidt + CCD.
(F52) Pan-STARRS 2, Haleakala  (N20.707382 W156.255910)  US/Hawaii.
   Observers J. Herman, T. Lowe, P. Minguez, A. Schultz, I. Smith. Measurers
   K. Chambers, T. de Boer, J. Fairlamb, H. Gao, M. Huber, C.-C. Lin, E.
   Magnier, Y. Ramanjooloo, R. Wainscoat, R. Weryk. 1.8-m Ritchey-Chrétien +
   CCD.
(H21) Astronomical Research Observatory, Westfield  (N39.483054 W87.968270)
   US/Illinois.  Observer R. Holmes. Measurers S. Foglia, L. Buzzi, T.
   Linder, R. Holmes. 0.40-m f/5.32 astrograph + CCD.
(I93) St Pardon de Conques  (N44.558670 W0.202960)  France.  Observers F.
   Losse, W. D'Anna. Measurer F. Losse. 0.40-m f/3.7 reflector + CCD.

Orbital elements:  P22papF
   Perihelion 2026 Sep 17.458012 +/- 0.264 TT = 10:59:32.2 (JD 2461300.958012)
Epoch 2026 Aug 12.0 TT = JDT 2461264.5   Earth MOID: 0.0753   Ma: 0.0421
M 341.033440282 +/- 0.13            (J2000 ecliptic)             AutoNEOCP
n   0.520230226 +/- 0.0024          Peri.   71.225765 +/- 0.6
a   1.531107420 +/- 0.00472         Node   285.993788 +/- 0.33
e   0.32324775 +/- 0.00232          Incl.    4.458114 +/- 0.039
P   1.895/691.988d         H 25.45  G  0.15   U  8.7
q 1.036180388 +/- 0.001    Q 2.026034451 +/- 0.0097
From 14 observations 2026 Aug. 11-12 (20.1 hr); mean residual 0".32
Residuals in arcseconds: 
260811 F52  .20-  .01-    260811 F52  .02-  .28+    260811 I93  .96-  .06-    
260811 F52  .25+  .07+    260811 033  .03-  .10+    260812 H21  .20+  .17+    
260811 F52  .20-  .45-    260811 033  .34+  .08-    260812 H21  .06-  .13+    
260811 F52  .04-  .21-    260811 033  .25+  .01+    260812 H21  .30+  .19+    
260811 F52  .25+  .45+    260811 I93  .08-  .86-    

Ephemerides (geocentric):
Date (UTC) HH   RA             Dec           delta  r     elong  mag " sig PA
---- --------  ------------   ------------  ------ ------ -----  --- --------
2026 08 12 06  21 05 27.506   +16 09 26.29  .09053 1.0915 148.4 21.7 .202 147
2026 08 12 07  21 05 32.693   +16 13 49.41  .09046 1.0914 148.3 21.7 .189 140
2026 08 12 08  21 05 37.892   +16 18 12.84  .09038 1.0912 148.2 21.7 .177 132
2026 08 12 09  21 05 43.106   +16 22 36.57  .09031 1.0911 148.2 21.7 .169 121
2026 08 12 10  21 05 48.334   +16 27 00.61  .09024 1.0910 148.1 21.7 .166 109
2026 08 12 11  21 05 53.576   +16 31 24.96  .09016 1.0909 148.0 21.7 .172  96
2026 08 12 12  21 05 58.832   +16 35 49.60  .09009 1.0908 148.0 21.7 .186  84
2026 08 12 13  21 06 04.101   +16 40 14.55  .09001 1.0906 147.9 21.7 .210  73
2026 08 12 14  21 06 09.385   +16 44 39.80  .08994 1.0905 147.8 21.7 .241  64
2026 08 12 15  21 06 14.684   +16 49 05.35  .08987 1.0904 147.8 21.7 .280  57
2026 08 12 16  21 06 19.996   +16 53 31.20  .08980 1.0903 147.7 21.7 .324  51
2026 08 12 17  21 06 25.323   +16 57 57.35  .08972 1.0902 147.7 21.7 .374  46
2026 08 12 18  21 06 30.664   +17 02 23.80  .08965 1.0900 147.6 21.7 .428  43
2026 08 12 19  21 06 36.019   +17 06 50.55  .08958 1.0899 147.5 21.7 .487  40
2026 08 12 20  21 06 41.389   +17 11 17.60  .08951 1.0898 147.5 21.7 .549  37
2026 08 12 21  21 06 46.773   +17 15 44.94  .08943 1.0897 147.4 21.7 .615  35
2026 08 12 22  21 06 52.172   +17 20 12.58  .08936 1.0896 147.3 21.7 .685  33
2026 08 12 23  21 06 57.585   +17 24 40.52  .08929 1.0894 147.3 21.7 .758  32
2026 08 13 00  21 07 03.014   +17 29 08.75  .08922 1.0893 147.2 21.7 .835  31
2026 08 13 01  21 07 08.456   +17 33 37.28  .08915 1.0892 147.1 21.7 .916  29
2026 08 13 02  21 07 13.914   +17 38 06.10  .08908 1.0891 147.1 21.7 1.00  28
2026 08 13 03  21 07 19.386   +17 42 35.21  .08901 1.0890 147.0 21.7 1.09  28
2026 08 13 04  21 07 24.873   +17 47 04.62  .08894 1.0889 147.0 21.7 1.18  27
2026 08 13 05  21 07 30.375   +17 51 34.32  .08887 1.0887 146.9 21.7 1.27  26
2026 08 13 06  21 07 35.892   +17 56 04.30  .08880 1.0886 146.8 21.7 1.37  26
2026 08 13 07  21 07 41.424   +18 00 34.58  .08873 1.0885 146.8 21.7 1.47  25
2026 08 13 08  21 07 46.971   +18 05 05.15  .08866 1.0884 146.7 21.7 1.57  25
2026 08 13 09  21 07 52.533   +18 09 36.01  .08859 1.0883 146.6 21.7 1.68  24
2026 08 13 10  21 07 58.110   +18 14 07.16  .08852 1.0881 146.6 21.7 1.79  24
2026 08 13 11  21 08 03.702   +18 18 38.59  .08845 1.0880 146.5 21.7 1.91  23
2026 08 13 12  21 08 09.310   +18 23 10.32  .08838 1.0879 146.4 21.7 2.02  23
2026 08 13 13  21 08 14.933   +18 27 42.32  .08831 1.0878 146.4 21.7 2.15  23
2026 08 13 14  21 08 20.571   +18 32 14.62  .08824 1.0877 146.3 21.7 2.27  22
2026 08 13 15  21 08 26.225   +18 36 47.19  .08818 1.0876 146.3 21.7 2.40  22
2026 08 13 16  21 08 31.894   +18 41 20.05  .08811 1.0874 146.2 21.7 2.53  22
2026 08 13 17  21 08 37.579   +18 45 53.20  .08804 1.0873 146.1 21.7 2.66  22
2026 08 13 18  21 08 43.279   +18 50 26.62  .08797 1.0872 146.1 21.7 2.80  21
2026 08 13 19  21 08 48.995   +18 55 00.33  .08791 1.0871 146.0 21.7 2.94  21
2026 08 13 20  21 08 54.726   +18 59 34.32  .08784 1.0870 145.9 21.7 3.09  21
2026 08 13 21  21 09 00.473   +19 04 08.59  .08777 1.0869 145.9 21.7 3.24  21
2026 08 13 22  21 09 06.236   +19 08 43.13  .08771 1.0867 145.8 21.7 3.39  21
2026 08 13 23  21 09 12.015   +19 13 17.96  .08764 1.0866 145.7 21.7 3.55  21
2026 08 14 00  21 09 17.810   +19 17 53.06  .08757 1.0865 145.7 21.7 3.71  20
2026 08 14 01  21 09 23.621   +19 22 28.44  .08751 1.0864 145.6 21.7 3.87  20
2026 08 14 02  21 09 29.447   +19 27 04.09  .08744 1.0863 145.5 21.7 4.03  20
2026 08 14 03  21 09 35.290   +19 31 40.02  .08738 1.0862 145.5 21.7 4.20  20
2026 08 14 04  21 09 41.149   +19 36 16.23  .08731 1.0860 145.4 21.7 4.38  20
2026 08 14 05  21 09 47.024   +19 40 52.70  .08725 1.0859 145.3 21.7 4.55  20